This is the latest recevied weather packets stored in our database for station/object IK2YOU-3. If no packets are shown the sender has not sent any weather packets the latest 10 day(s).
| Time | Temp. | Humidity | Pressure | Rain* | Wind** | Luminosity | Snow |
|---|---|---|---|---|---|---|---|
| 1777972439 | 14.44° C | 77% | 1010.7 hPa | 0 mm | - | 119 W/m² | - |
| 1777971968 | 13.89° C | 77% | 1010.8 hPa | 0 mm | - | 86 W/m² | - |
| 1777971238 | 13.89° C | 77% | 1010.6 hPa | 0 mm | - | 89 W/m² | - |
| 1777970637 | 13.89° C | 76% | 1010.6 hPa | 0 mm | - | 81 W/m² | - |
| 1777970037 | 13.89° C | 77% | 1010.6 hPa | 0 mm | - | 52 W/m² | - |
| 1777969437 | 13.89° C | 77% | 1010.7 hPa | 0 mm | - | 37 W/m² | - |
| 1777968837 | 13.89° C | 77% | 1010.6 hPa | 0.25 mm | - | 23 W/m² | - |
| 1777968364 | 13.33° C | 77% | 1010.6 hPa | 0.51 mm | - | 62 W/m² | - |
| 1777967635 | 13.33° C | 77% | 1010.8 hPa | 1.27 mm | - | 32 W/m² | - |
| 1777967166 | 13.33° C | 77% | 1010.8 hPa | 1.52 mm | - | 33 W/m² | - |
| 1777966436 | 13.33° C | 77% | 1010.7 hPa | 1.52 mm | - | 43 W/m² | - |
| 1777965963 | 13.33° C | 77% | 1010.6 hPa | 1.78 mm | - | 56 W/m² | - |
| 1777965363 | 13.33° C | 78% | 1010.7 hPa | 2.29 mm | - | 43 W/m² | - |
| 1777964634 | 13.33° C | 78% | 1010.8 hPa | 2.29 mm | - | 35 W/m² | - |
| 1777964165 | 13.33° C | 78% | 1010.6 hPa | 1.52 mm | - | 38 W/m² | - |
| 1777963434 | 13.33° C | 78% | 1010.9 hPa | 1.52 mm | - | 44 W/m² | - |
| 1777962835 | 13.33° C | 79% | 1010.9 hPa | 1.78 mm | - | 47 W/m² | - |
| 1777962363 | 13.33° C | 79% | 1010.7 hPa | 1.52 mm | - | 32 W/m² | - |
| 1777961634 | 13.33° C | 81% | 1010.8 hPa | 1.02 mm | - | 23 W/m² | - |
| 1777961034 | 13.33° C | 82% | 1010.9 hPa | 0.76 mm | - | 15 W/m² | - |
| 1777960566 | 13.33° C | 83% | 1010.8 hPa | 0.51 mm | - | 11 W/m² | - |
| 1777959962 | 13.89° C | 84% | 1010.7 hPa | 0.51 mm | - | 12 W/m² | - |
| 1777959234 | 13.89° C | 85% | 1010.5 hPa | 0.25 mm | - | 6 W/m² | - |
| 1777958633 | 14.44° C | 86% | 1010.3 hPa | 0 mm | - | 5 W/m² | - |
| 1777958034 | 14.44° C | 85% | 1010.2 hPa | 0 mm | - | 6 W/m² | - |
* Rain latest hour (hover to see other rain measurements)
** Current wind speed in m/s (hover to see current wind gust speed)